FENGYUN 1C DEB, 29815

Orbit data source: Space-Track

FENGYUN 1C DEB, 29815 is space debris in SSO originally from a launch on Mon, 10 May 1999 UTC launched from the Taiyaun Space Center, China (TSC). Fengyun 1C debris stems from the Chinese weather satellite Fengyun-1C, which was intentionally destroyed by a Chinese anti-satellite missile in 2007. This event dramatically increased the amount of space debris, with thousands of trackable fragments posing hazards to satellites and human spaceflight. The Fengyun 1C debris cloud has become a focal point in discussions about space sustainability and the need for international regulations to prevent the creation of new debris.

Loading next visibility...
Identifier
29815, 1999-025DH
Orbit
SSO
Country
Flag of CNCN / PRC
Related business
Manufacturer
Unknown
Mission
Spacecraft
Bus & Motor
Unknown
Mass
Unknown
Launch date (UTC)
1999-05-10 (27 years ago)
Launch vehicle
Unknown
Launch site
Taiyaun Space Center, China (TSC)
Object type
Payload
Rocket body
Debris
Shape & HBR
Unknown shape, 0.1 m
Radar Cross Section
Small (<0.1 m²)

Expand to show TLE details & history
Last TLE update: 12 hours ago

TLE from 12 hours ago
0 FENGYUN 1C DEB
1 29815U 99025DH  26121.94426748  .00005051  00000-0  74843-3 0  9996
2 29815  98.0518 132.5335 0180842  53.5153 308.2560 14.64998322 19030
Epoch: 2026-05-01T22:39Z
TLE epoch observation values (Epoch: 2026-05-01T22:39:44.710Z)
Latitude
0.00001°
Longitude
-67.27205°
Altitude
602.509 km
Speed
7.6 km/s
True Right ascension
08h 50m 08s
True Declination
0° 00' 00"
Sunlit
Object was in daylight at epoch
Visualization orbit readout
Latitude
Unknown
Longitude
Unknown
Altitude
Unknown
Speed
Unknown
Apparent Right ascension
Unknown
Apparent Declination
Unknown
Sunlit
N/A
Visualization observer readout
Local Sidereal Time
18:20:54
Azimuth
Unknown
Elevation
Unknown
Doppler factor
Unknown
Orbital elements
Apogee altitude
801.682 km
Perigee altitude
546.612 km
Semi-major axis
7,052.284 km
Eccentricity
0.01808
Inclination
98.0518°
RAAN
132.5335°
Arg. of periapsis
53.5153°
True anomaly
306.60587°
Mean anomaly
308.256°
Eccentric anomaly
307.43323°
Mean motion
3.66478 °/min
Orbital period
98.23 mins
BSTAR
0.00074843
Loading maneuver chart data...
Computing Atmospheric mass density...

Documentation

Showing up to 5 results
|